TimeEEST,TemperatureF,Dew PointF,Humidity,Sea Level PressureIn,VisibilityMPH,Wind Direction,Wind SpeedMPH,Gust SpeedMPH,PrecipitationIn,Events,Conditions,WindDirDegrees,DateUTC
12:20 AM,68.0,57.2,68,29.86,-9999.0,Calm,Calm,-,N/A,,Clear,0,2011-10-07 21:20:00
12:50 AM,66.2,55.4,68,29.86,-9999.0,Calm,Calm,-,N/A,,Clear,0,2011-10-07 21:50:00
1:20 AM,66.2,55.4,68,29.86,6.2,Variable,2.3,-,N/A,,Partly Cloudy,0,2011-10-07 22:20:00
1:50 AM,66.2,55.4,68,29.86,6.2,Calm,Calm,-,N/A,,Partly Cloudy,0,2011-10-07 22:50:00
2:20 AM,66.2,55.4,68,29.83,6.2,Calm,Calm,-,N/A,,Partly Cloudy,0,2011-10-07 23:20:00
2:50 AM,66.2,55.4,68,29.83,6.2,Variable,2.3,-,N/A,,Partly Cloudy,0,2011-10-07 23:50:00
3:20 AM,64.4,55.4,73,29.83,6.2,Calm,Calm,-,N/A,,Partly Cloudy,0,2011-10-08 00:20:00
3:50 AM,64.4,55.4,73,29.83,6.2,Calm,Calm,-,N/A,,Partly Cloudy,0,2011-10-08 00:50:00
4:20 AM,62.6,55.4,77,29.83,6.2,Calm,Calm,-,N/A,,Partly Cloudy,0,2011-10-08 01:20:00
4:50 AM,62.6,55.4,77,29.83,-9999.0,Calm,Calm,-,N/A,,Clear,0,2011-10-08 01:50:00
5:20 AM,62.6,55.4,77,29.83,-9999.0,Calm,Calm,-,N/A,,Clear,0,2011-10-08 02:20:00
5:50 AM,62.6,55.4,77,29.83,-9999.0,Calm,Calm,-,N/A,,Clear,0,2011-10-08 02:50:00
6:20 AM,62.6,55.4,77,29.83,-9999.0,NNW,5.8,-,N/A,,Clear,330,2011-10-08 03:20:00
6:50 AM,62.6,55.4,77,29.83,-9999.0,Variable,3.5,-,N/A,,Clear,0,2011-10-08 03:50:00
7:20 AM,60.8,55.4,82,29.83,-9999.0,Variable,2.3,-,N/A,,Clear,0,2011-10-08 04:20:00
7:50 AM,60.8,55.4,82,29.83,6.2,Variable,3.5,-,N/A,,Partly Cloudy,0,2011-10-08 04:50:00
8:20 AM,64.4,57.2,77,29.83,6.2,Calm,Calm,-,N/A,,Partly Cloudy,0,2011-10-08 05:20:00
8:50 AM,68.0,57.2,68,29.80,6.2,Calm,Calm,-,N/A,,Partly Cloudy,0,2011-10-08 05:50:00
9:20 AM,69.8,59.0,68,29.80,6.2,Calm,Calm,-,N/A,,Partly Cloudy,0,2011-10-08 06:20:00
9:50 AM,73.4,59.0,61,29.83,6.2,Calm,Calm,-,N/A,,Partly Cloudy,0,2011-10-08 06:50:00
10:20 AM,75.2,57.2,53,29.83,6.2,Calm,Calm,-,N/A,,Partly Cloudy,0,2011-10-08 07:20:00
10:50 AM,75.2,59.0,57,29.80,6.2,South,4.6,-,N/A,,Partly Cloudy,190,2011-10-08 07:50:00
11:20 AM,75.2,59.0,57,29.80,6.2,SSW,4.6,-,N/A,,Partly Cloudy,200,2011-10-08 08:20:00
11:50 AM,77.0,57.2,50,29.80,6.2,South,5.8,-,N/A,,Partly Cloudy,190,2011-10-08 08:50:00
12:20 PM,78.8,55.4,44,29.80,6.2,South,5.8,-,N/A,,Partly Cloudy,180,2011-10-08 09:20:00
12:50 PM,80.6,55.4,42,29.80,6.2,South,8.1,-,N/A,,Partly Cloudy,190,2011-10-08 09:50:00
1:20 PM,82.4,55.4,39,29.80,6.2,SSE,8.1,-,N/A,,Partly Cloudy,160,2011-10-08 10:20:00
1:50 PM,80.6,57.2,45,29.77,6.2,SSE,12.7,-,N/A,,Partly Cloudy,160,2011-10-08 10:50:00
2:20 PM,80.6,57.2,45,29.77,6.2,South,12.7,-,N/A,,Partly Cloudy,170,2011-10-08 11:20:00
2:50 PM,80.6,59.0,48,29.74,6.2,SSE,15.0,-,N/A,,Scattered Clouds,160,2011-10-08 11:50:00
3:20 PM,80.6,59.0,48,29.74,6.2,SSE,15.0,-,N/A,,Scattered Clouds,160,2011-10-08 12:20:00
3:50 PM,78.8,60.8,54,29.74,6.2,SSE,15.0,-,N/A,,Scattered Clouds,160,2011-10-08 12:50:00
4:20 PM,77.0,60.8,57,29.74,6.2,SSE,15.0,-,N/A,,Scattered Clouds,160,2011-10-08 13:20:00
4:50 PM,77.0,62.6,61,29.71,6.2,South,16.1,-,N/A,,Scattered Clouds,170,2011-10-08 13:50:00
5:20 PM,77.0,62.6,61,29.71,6.2,SSE,15.0,-,N/A,,Scattered Clouds,160,2011-10-08 14:20:00
5:50 PM,75.2,62.6,65,29.71,6.2,South,12.7,-,N/A,,Scattered Clouds,170,2011-10-08 14:50:00
6:20 PM,75.2,62.6,65,29.71,6.2,SSE,11.5,-,N/A,,Scattered Clouds,160,2011-10-08 15:20:00
6:50 PM,75.2,60.8,61,29.68,6.2,South,9.2,-,N/A,,Scattered Clouds,190,2011-10-08 15:50:00
7:20 PM,75.2,60.8,61,29.68,6.2,South,13.8,-,N/A,,Scattered Clouds,180,2011-10-08 16:20:00
7:50 PM,73.4,62.6,69,29.68,6.2,South,13.8,-,N/A,,Scattered Clouds,180,2011-10-08 16:50:00
8:20 PM,73.4,62.6,69,29.68,6.2,South,13.8,-,N/A,,Scattered Clouds,170,2011-10-08 17:20:00
8:50 PM,73.4,62.6,69,29.68,6.2,South,12.7,-,N/A,,Mostly Cloudy,170,2011-10-08 17:50:00
9:20 PM,71.6,62.6,73,29.68,6.2,South,11.5,-,N/A,Rain,Light Rain,170,2011-10-08 18:20:00
9:50 PM,71.6,62.6,73,29.68,6.2,South,9.2,-,N/A,Rain,Light Rain,180,2011-10-08 18:50:00
10:20 PM,71.6,60.8,69,29.68,6.2,South,6.9,-,N/A,,Mostly Cloudy,170,2011-10-08 19:20:00
10:50 PM,71.6,62.6,73,29.68,6.2,SE,10.4,-,N/A,,Mostly Cloudy,140,2011-10-08 19:50:00
11:20 PM,71.6,62.6,73,29.68,6.2,South,8.1,-,N/A,,Mostly Cloudy,180,2011-10-08 20:20:00
11:50 PM,71.6,60.8,69,29.68,6.2,South,10.4,-,N/A,,Mostly Cloudy,190,2011-10-08 20:50:00